Printer-friendly version

IAU Minor Planet Center

Minor Planet Center

MPEC 2006-K74 : 2006 KK89

The following Minor Planet Electronic Circular may be linked-to from your own Web pages, but must not otherwise be redistributed electronically.


Read MPEC 2006-K73 Read MPEC 2006-K75


M.P.E.C. 2006-K74                                Issued 2006 May 30, 14:52 UT

     The Minor Planet Electronic Circulars contain information on unusual
         minor planets and routine data on comets.  They are published
   on behalf of Commission 20 of the International Astronomical Union by the
          Minor Planet Center, Smithsonian Astrophysical Observatory,
                          Cambridge, MA 02138, U.S.A.

                  Supported in part by the Brinson Foundation
                  Supported in part by the TABASGO Foundation
             Prepared using the Tamkin Foundation Computer Network

                              MPC@CFA.HARVARD.EDU
          URL http://cfa-www.harvard.edu/iau/mpc.html  ISSN 1523-6714

                                   2006 KK89

Observations:
     K06K89K* C2006 05 28.26952 13 25 42.13 -04 34 37.3          20.7 V EK074G96
     K06K89K  C2006 05 28.27551 13 25 40.54 -04 34 58.8          20.3 V EK074G96
     K06K89K  C2006 05 28.28150 13 25 38.92 -04 35 19.9          20.7 V EK074G96
     K06K89K  C2006 05 28.28766 13 25 37.23 -04 35 42.0          20.6 V EK074G96
     K06K89K  C2006 05 29.19998 13 21 46.54 -05 29 30.3          20.9 V EK074G96
     K06K89K  C2006 05 29.20510 13 21 45.18 -05 29 48.6          21.0 V EK074G96
     K06K89K  C2006 05 29.21030 13 21 43.81 -05 30 07.1          20.8 V EK074G96
     K06K89K  C2006 05 29.21544 13 21 42.44 -05 30 24.9          20.8 V EK074G96
     K06K89K tC2006 05 30.15500 13 17 51.13 -06 25 23.3          21.3 V EK074291
     K06K89K tC2006 05 30.15878 13 17 50.17 -06 25 36.2          21.3 V EK074291
     K06K89K tC2006 05 30.16263 13 17 49.09 -06 25 50.8          21.4 V EK074291
     K06K89K 5C2006 05 30.18252 13 17 44.20 -06 27 01.4          20.6 R EK074673
     K06K89K 5C2006 05 30.18600 13 17 43.31 -06 27 13.8                 EK074673
     K06K89K 5C2006 05 30.18935 13 17 42.42 -06 27 25.6                 EK074673
     K06K89K  C2006 05 30.19196 13 17 41.46 -06 27 33.0          20.6 V EK074G96
     K06K89K 5C2006 05 30.19606 13 17 40.70 -06 27 49.3                 EK074673
     K06K89K  C2006 05 30.19790 13 17 39.91 -06 27 53.9          20.3 V EK074G96
     K06K89K  C2006 05 30.20394 13 17 38.36 -06 28 14.7          20.5 V EK074G96
     K06K89K  C2006 05 30.20984 13 17 36.85 -06 28 35.5          20.3 V EK074G96

Observer details:
291 LPL/Spacewatch II.  Observer J. V. Scotti.  1.8-m f/2.7 reflector + CCD.
673 Table Mountain Observatory, Wrightwood.  Observer J. Young.  0.61-m f/16
    Cassegrain + CCD.
G96 Mt. Lemmon Survey.  Observers R. A. Kowalski, A. D. Grauer.  Measurers
    E. C. Beshore, E. J. Christensen, G. J. Garradd, A. R. Gibbs, A. D. Grauer,
    R. E. Hill, R. A. Kowalski, S. M. Larson, R. H. McNaught.  1.5-m reflector
    + CCD.

Orbital elements:
2006 KK89                                                Earth MOID = 0.1006 AU
Epoch 2006 Mar. 6.0 TT = JDT 2453800.5                  MPC
M 153.31891              (2000.0)            P               Q
n   0.94793726     Peri.  319.15675     +0.90677013     -0.34110092
a   1.0263205      Node    62.42587     +0.42129700     +0.75621109
e   0.1744033      Incl.   16.23537     -0.01663605     +0.55838603
P   1.04           H   22.5           G   0.15           U   8
Residuals in seconds of arc
060528 G96  0.5-  0.3+    060529 G96  0.3+  0.1-    060530 G96  0.1-  0.1+
060528 G96  0.1+  0.0     060530 291  0.2+  0.3+    060530 673  0.2-  0.7-
060528 G96  0.2+  0.1+    060530 291  0.6+  0.6+    060530 G96  0.2-  0.1-
060528 G96  0.1-  0.2-    060530 291  0.6-  0.5-    060530 G96  0.1+  0.2+
060529 G96  0.2-  0.1+    060530 673  0.4-  0.1-    060530 G96  0.4+  0.0
060529 G96  0.0   0.2-    060530 673  0.2-  0.3-
060529 G96  0.3+  0.4-    060530 673  0.5-  0.4-

Ephemeris:
2006 KK89                a,e,i = 1.03, 0.17, 16                  q = 0.8473
Date    TT    R. A. (2000) Decl.     Delta      r     Elong.  Phase     V
2006 05 25    13 40.39   -01 19.5    0.184    1.158   139.4    34.7    20.6
2006 05 27    13 31.28   -03 18.8    0.185    1.155   136.5    37.1    20.7
2006 05 29    13 22.62   -05 17.2    0.188    1.151   133.6    39.6    20.7
2006 05 31    13 14.46   -07 13.9    0.191    1.147   130.6    42.2    20.8
2006 06 02    13 06.82   -09 08.0    0.195    1.143   127.6    44.6    20.9
2006 06 04    12 59.70   -10 58.9    0.199    1.139   124.7    47.1    21.1
2006 06 06    12 53.10   -12 46.2    0.203    1.135   121.9    49.4    21.2
2006 06 08    12 47.01   -14 29.7    0.208    1.131   119.1    51.6    21.3
2006 06 10    12 41.40   -16 09.3    0.213    1.126   116.5    53.8    21.4
2006 06 12    12 36.25   -17 45.0    0.218    1.122   113.9    55.8    21.5
2006 06 14    12 31.54   -19 16.8    0.224    1.117   111.5    57.8    21.6
2006 06 16    12 27.24   -20 45.0    0.229    1.112   109.2    59.6    21.7
2006 06 18    12 23.32   -22 09.7    0.235    1.108   106.9    61.3    21.8
2006 06 20    12 19.76   -23 31.2    0.241    1.103   104.8    63.0    21.9
2006 06 22    12 16.54   -24 49.6    0.247    1.098   102.8    64.6    21.9
2006 06 24    12 13.62   -26 05.2    0.253    1.092   100.8    66.0    22.0

Timothy B. Spahr             (C) Copyright 2006 MPC           M.P.E.C. 2006-K74

Read MPEC 2006-K73 Read MPEC 2006-K75


Our Web policy. Index to the CBAT/MPC/ICQ pages.


Valid HTML 4.01!